Location: Blandford
(50.8667°N, 2.1667°W)
Time: 12:11:32
(UTC+00:00)

Cosmos 2341 Rocket - Pass Details

Date: 09 April 2020
Orbit: 968 x 1004 km, 82.9° (Epoch: 02 June)

Event Time Altitude Azimuth Distance (km) Brightness Sun altitude
Rises 20:42:26 0° 348° (NNW) 3,737 7.8 -16.1°
Reaches altitude 10° 20:44:59 10° 345° (NNW) 2,786 7.1 -16.5°
Maximum altitude 20:51:18 64° 266° (W) 1,111 4.5 -17.2°
Drops below altitude 10° 20:57:35 10° 187° (S) 2,773 6.1 -18.0°
Enters shadow 20:58:27 - 186° (S) 3,094 6.3 -18.1°
